Kelso-Longview, WA
on Wednesday, November 14, 2012

Wednesday
Previous Day Next Day
Daily Summary
 ActualAverage (KSPB)Record (KSPB)
Temperature
Mean Temperature °F °F  
Max Temperature 57°F °F 64°F (2001)
Min Temperature 39°F °F 24°F (2014)
Degree Days
Heating Degree Days 17    
Month to date heating degree days  
Since 1 July heating degree days  
Cooling Degree Days 0    
Month to date cooling degree days  
Year to date cooling degree days  
Moisture
Dew Point 44°F   
Average Humidity 84    
Maximum Humidity 93    
Minimum Humidity 67    
Precipitation
Precipitation 0.01 in in 0.95 in (2001)
Month to date precipitation  
Year to date precipitation  
Wind
Wind Speed 2 mph   
Max Wind Speed 7 mph   
Max Gust Speed mph   
Visibility 8 miles   
Events     

Key: T is trace of precipitation, MM is missing value
Source: NWS Daily Summary
Time(PST)TemperatureDew PointHumidity Pressure Visibility Wind DirectionWind SpeedGust SpeedPrecipitationEvents Conditions
12:15 AM 50.0°F 46.4°F 87% 30.22 in 10.0 miles SE 3.5 mph - N/A   Overcast
12:35 AM 50.0°F 46.4°F 87% 30.22 in 9.0 miles SSE 3.5 mph - N/A   Overcast
12:55 AM 48.2°F 46.4°F 93% 30.22 in 9.0 miles Calm Calm - N/A   Overcast
1:15 AM 48.2°F 46.4°F 93% 30.22 in 8.0 miles Calm Calm - N/A   Overcast
1:35 AM 48.2°F 44.6°F 87% 30.23 in 5.0 miles Calm Calm - N/A   Mostly Cloudy
1:55 AM 48.2°F 44.6°F 87% 30.23 in 5.0 miles Calm Calm - N/A   Overcast
2:15 AM 48.2°F 44.6°F 87% 30.23 in 5.0 miles South 3.5 mph - N/A   Overcast
2:35 AM 48.2°F 44.6°F 87% 30.23 in 7.0 miles Calm Calm - N/A   Mostly Cloudy
2:55 AM 46.4°F 44.6°F 93% 30.23 in 6.0 miles ESE 3.5 mph - N/A   Mostly Cloudy
3:15 AM 46.4°F 42.8°F 87% 30.23 in 4.0 miles Calm Calm - N/A   Overcast
3:35 AM 46.4°F 44.6°F 93% 30.23 in 5.0 miles Calm Calm - N/A   Overcast
3:55 AM 46.4°F 44.6°F 93% 30.23 in 7.0 miles Calm Calm - N/A   Overcast
4:15 AM 46.4°F 44.6°F 93% 30.23 in 9.0 miles ESE 3.5 mph - N/A   Overcast
4:35 AM 46.4°F 44.6°F 93% 30.23 in 10.0 miles SE 3.5 mph - N/A   Overcast
4:55 AM 46.4°F 44.6°F 93% 30.23 in 9.0 miles Calm Calm - N/A   Overcast
5:15 AM 46.4°F 44.6°F 93% 30.24 in 7.0 miles Calm Calm - N/A   Overcast
5:35 AM 46.4°F 44.6°F 93% 30.25 in 8.0 miles Calm Calm - N/A   Overcast
5:55 AM 46.4°F 44.6°F 93% 30.25 in 10.0 miles Calm Calm - N/A   Overcast
6:15 AM 48.2°F 44.6°F 87% 30.25 in 10.0 miles SE 3.5 mph - N/A   Overcast
6:35 AM 48.2°F 44.6°F 87% 30.25 in 10.0 miles SE 3.5 mph - N/A   Overcast
6:55 AM 48.2°F 44.6°F 87% 30.26 in 6.0 miles Calm Calm - N/A   Overcast
7:15 AM 48.2°F 44.6°F 87% 30.27 in 3.0 miles Calm Calm - 0.01 in   Mostly Cloudy
7:35 AM 48.2°F 44.6°F 87% 30.27 in 2.0 miles SE 3.5 mph - 0.01 in   Overcast
7:55 AM 48.2°F 46.4°F 93% 30.28 in 2.5 miles SSE 3.5 mph - 0.01 in   Overcast
8:15 AM 48.2°F 46.4°F 93% 30.28 in 3.0 miles Calm Calm - N/A   Overcast
8:35 AM 48.2°F 46.4°F 93% 30.28 in 3.0 miles Calm Calm - N/A   Overcast
8:55 AM 48.2°F 46.4°F 93% 30.29 in 4.0 miles Calm Calm - N/A   Overcast
9:15 AM 50.0°F 46.4°F 87% 30.29 in 5.0 miles Calm Calm - N/A   Overcast
9:35 AM 51.8°F 46.4°F 82% 30.29 in 5.0 miles South 4.6 mph - N/A   Overcast
9:55 AM 51.8°F 46.4°F 82% 30.30 in 7.0 miles Calm Calm - N/A   Overcast
10:15 AM 51.8°F 46.4°F 82% 30.30 in 9.0 miles Calm Calm - N/A   Overcast
10:35 AM 51.8°F 46.4°F 82% 30.31 in 10.0 miles Calm Calm - N/A   Overcast
10:55 AM 51.8°F 46.4°F 82% 30.31 in 10.0 miles Calm Calm - N/A   Mostly Cloudy
11:15 AM 53.6°F 46.4°F 77% 30.30 in 10.0 miles Calm Calm - N/A   Mostly Cloudy
11:35 AM 55.4°F 48.2°F 77% 30.30 in 10.0 miles South 4.6 mph - N/A   Overcast
11:55 AM 55.4°F 48.2°F 77% 30.30 in 10.0 miles South 4.6 mph - N/A   Overcast
12:15 PM 53.6°F 48.2°F 82% 30.29 in 10.0 miles Calm Calm - N/A   Scattered Clouds
12:35 PM 55.4°F 46.4°F 72% 30.29 in 10.0 miles South 3.5 mph - N/A   Clear
12:55 PM 55.4°F 46.4°F 72% 30.28 in 10.0 miles South 4.6 mph - N/A   Clear
1:15 PM 55.4°F 46.4°F 72% 30.28 in 10.0 miles South 3.5 mph - N/A   Scattered Clouds
1:35 PM 55.4°F 44.6°F 67% 30.28 in 10.0 miles Calm Calm - N/A   Mostly Cloudy
1:55 PM 57.2°F 46.4°F 67% 30.28 in 10.0 miles WNW 3.5 mph - N/A   Overcast
2:15 PM 55.4°F 44.6°F 67% 30.27 in 10.0 miles North 5.8 mph - N/A   Overcast
2:35 PM 55.4°F 44.6°F 67% 30.27 in 10.0 miles NNE 4.6 mph - N/A   Mostly Cloudy
2:55 PM 55.4°F 46.4°F 72% 30.27 in 8.0 miles Calm Calm - N/A   Clear
3:15 PM 55.4°F 46.4°F 72% 30.27 in 10.0 miles Calm Calm - N/A   Clear
3:35 PM 55.4°F 46.4°F 72% 30.27 in 10.0 miles Calm Calm - N/A   Clear
3:55 PM 55.4°F 46.4°F 72% 30.27 in 10.0 miles North 6.9 mph - N/A   Clear
4:15 PM 55.4°F 44.6°F 67% 30.26 in 10.0 miles NNE 4.6 mph - N/A   Clear
4:35 PM 53.6°F 44.6°F 72% 30.27 in 10.0 miles North 4.6 mph - N/A   Clear
4:55 PM 51.8°F 44.6°F 76% 30.26 in 10.0 miles North 3.5 mph - N/A   Clear
5:15 PM 51.8°F 44.6°F 76% 30.27 in 10.0 miles NNE 4.6 mph - N/A   Clear
5:35 PM 50.0°F 42.8°F 76% 30.27 in 10.0 miles North 3.5 mph - N/A   Clear
5:55 PM 48.2°F 42.8°F 82% 30.27 in 10.0 miles North 4.6 mph - N/A   Clear
6:15 PM 48.2°F 42.8°F 82% 30.27 in 10.0 miles North 4.6 mph - N/A   Clear
6:35 PM 46.4°F 41.0°F 81% 30.28 in 10.0 miles Calm Calm - N/A   Clear
6:55 PM 46.4°F 42.8°F 87% 30.27 in 10.0 miles Calm Calm - N/A   Clear
7:15 PM 44.6°F 39.2°F 81% 30.28 in 10.0 miles Calm Calm - N/A   Clear
7:35 PM 44.6°F 42.8°F 93% 30.27 in 10.0 miles Calm Calm - N/A   Clear
7:55 PM 44.6°F 39.2°F 81% 30.27 in 10.0 miles Calm Calm - N/A   Clear
8:15 PM 42.8°F 39.2°F 87% 30.27 in 10.0 miles Calm Calm - N/A   Clear
8:35 PM 44.6°F 41.0°F 87% 30.27 in 10.0 miles Calm Calm - N/A   Clear
8:55 PM 44.6°F 41.0°F 87% 30.27 in 10.0 miles NW 3.5 mph - N/A   Clear
9:15 PM 42.8°F 39.2°F 87% 30.26 in 8.0 miles Calm Calm - N/A   Clear
9:35 PM 42.8°F 39.2°F 87% 30.27 in 10.0 miles Calm Calm - N/A   Partly Cloudy
9:55 PM 41.0°F 37.4°F 87% 30.26 in 10.0 miles Calm Calm - N/A   Partly Cloudy
10:15 PM 41.0°F 37.4°F 87% 30.26 in 10.0 miles Calm Calm - N/A   Scattered Clouds
10:35 PM 41.0°F 37.4°F 87% 30.26 in 10.0 miles Calm Calm - N/A   Partly Cloudy
10:55 PM 39.2°F 35.6°F 87% 30.25 in 10.0 miles Calm Calm - N/A   Partly Cloudy
11:15 PM 39.2°F 37.4°F 93% 30.25 in 10.0 miles Calm Calm - N/A   Mostly Cloudy
11:35 PM 41.0°F 37.4°F 87% 30.25 in 10.0 miles Calm Calm - N/A   Overcast
11:55 PM 39.2°F 35.6°F 87% 30.24 in 10.0 miles Calm Calm - N/A   Mostly Cloudy
Moon Phase
Nov. 14 Nov. 20 Nov. 28 Dec. 06 Dec. 13
Sunrise:07:11 AM (PST) Moon Rise:08:10 AM (PST)11/14
Sunset:04:39 PM (PST) Moon Set:05:30 PM (PST)11/14

Copyright © 2014 The Weather Underground, Inc.